STARLINK-32142, 60291

Orbit data source: Space-Track

STARLINK-32142, 60291 is a payload satellite owned by SpaceX/Seattle (US) in LEO that was launched on Sun, 28 Jul 2024 UTC via an FALCON 9 launch vehicle from the Air Force Eastern Test Range (AFETR). Payload-class satellites include a variety of spacecraft equipped with specific instruments for various scientific and technological missions. These include communications satellites like Starlink; space stations such as the ISS; scientific satellites like the Hubble; Earth observation satellites from companies like Planet Labs, Umbra, and HawkEye 360; GPS; miniature CubeSats for education and research; and military/defense satellites.

Loading next visibility...
Identifier
60291, 2024-132P
Orbit
LEO
Last TLE update
21 hours ago
Origin
Manufacturer
SpaceX/Seattle
Mission
Operational spacecraft
Bus & Motor
STARLINK V2M, Unknown motor
Mass
730 kg wet, ~700 kg dry
Launch date (UTC)
2024-07-28 (9 months ago)
Launch vehicle
FALCON 9
Launch site
Air Force Eastern Test Range (AFETR)
Object type
Payload
Rocket body
Debris
Shape & HBR
Unknown
Radar Cross Section
Large (>1 m²)

Expand to show TLE details & history

TLE from 21 hours ago
0 STARLINK-32142
1 60291U 24132P   25128.92717520 -.00000476  00000-0 -39487-5 0  9996
2 60291  53.1607  27.7518 0000785  76.4189 283.6899 15.30194274 44905
Epoch: 2025-05-08T22:15Z
Definitive object data (Epoch: 2025-05-08T22:15:07.937Z)
Latitude
-0.00003°
Longitude
-173.02194°
Altitude
476.005 km
Speed
7.629 km/s
True Right ascension
01h 51m 00s
True Declination
0° 00' 00"
Sunlit
Object was in daylight at TLE epoch
Visualization TLE readout
Latitude
28.0335°
Longitude
-153.62537°
Altitude
476.236 km
Speed
7.632 km/s
Apparent Right ascension
03h 52m 37s
Apparent Declination
-36° 15' 12"
Sunlit
Object is in daylight
Visualization observer readout
Local Sidereal Time
02:58:01
Azimuth
168.745° S
Elevation
12.802°
Doppler factor
1
Orbital elements
Apogee altitude
476.026 km
Perigee altitude
474.95 km
Semi-major axis
6,853.625 km
Eccentricity
0.0000785
Inclination
53.1607°
RAAN
27.7518°
Arg. of periapsis
76.4189°
True anomaly
283.68116°
Mean anomaly
283.6899°
Eccentric anomaly
283.68553°
Mean motion
3.82527 °/min
BSTAR
-0.0000039487
Orbital period
94.11 mins
Loading maneuver chart data...
Loading SW <> Apogee altitude chart data...
Loading historical data...
Loading historical data...
Loading historical data...
Loading historical data...
Loading historical data...
Loading historical data...
Loading historical data...

STARLINK-32142 Visibility forecast

Observer location: undefined°, undefined°

Span
Click to sort rows by Start time (UTC) header in descending order
Start Az.
Max El. time (UTC)
Max El. Az.
Max El.
End time (UTC)
End Az.
4 mins2025-05-09 18:47:09.667Z168.827° S2025-05-09 18:49:09.667Z131.317° SE18.142°2025-05-09 18:51:09.667Z91.737° ESE
5 mins2025-05-09 20:25:09.667Z261.465° W2025-05-09 20:27:09.667Z339.453° N36.696°2025-05-09 20:30:09.667Z39.648° NE
4 mins2025-05-10 01:22:09.667Z349.245° N2025-05-10 01:24:09.667Z35.879° NE21.017°2025-05-10 01:26:09.667Z74.079° E
5 mins2025-05-10 03:00:09.667Z292.58° NW2025-05-10 03:02:09.667Z204.882° SW39.596°2025-05-10 03:05:09.667Z146.021° SSE
|